CZ-4B R/B

Satellite information

Favourite Embed

Satellite Type and Status

ROCKET BODYIN ORBIT

Key statistics

Satellite CZ-4B R/B at a glance.

Uptime

1491

Days in orbit

Revolutions

≈ 14.1

Per day

Orbit

SSO

Sun Synchronous Orbit

Inclination

99.4

Latest

Satellite identification and parameters

Extended collection of information and parameters for CZ-4B R/B.

Object identification

Identified? True

Debris? False

Object name: CZ-4B R/B

International designator: 2021-028B

Object number (NORAD): 48158

Object ID (CCSDS): 48158

Country: PEOPLES REPUBLIC OF CHINA (PRC)

Current information (Y/N): Y

RCS size: LARGE

Orbital parameters

Period: 102.465 minutes

Inclination: 99.4489 deg

SMA: 7253.45 km

Apoapsis: 990.014 km

Periapsis: 760.616 km

RAAN: 229.8976 deg

Eccentricy: 0.015813

Argument of periapsis: 254.2581 deg

Mean anomaly: 104.1096 deg

Mean motion: 14.05354294 rev/day

Mean motion (dot): -0.00000139 rev/day2

B* drag term: -0.00004919 1/REarth

Two-line elements (TLE)

Creation date: May 8, 2025, 3:01 a.m.

Reference frame: TEME

Reference center: EARTH

Epoch: May 7, 2025, 7:37 p.m. UTC

TLE line 0: 0 CZ-4B R/B

TLE line 1: 1 48158U 21028B 25127.81774705 -.00000139 00000-0 -49190-4 0 9997

TLE line 2: 2 48158 99.4489 229.8976 0158130 254.2581 104.1096 14.05354294209222

Live tracking on map

Real-time ground track for satellite CZ-4B R/B.

In-orbit conjunctions

A list of the most updated potential collisions computed for object CZ-4B R/B.

Target Orbit TCA Probability of collision Miss distance Type
OV1-20/OV1-21 AKM LEO 2025-04-19 00:08:41 0.0001068299 153.0 (m) ROCKET BODY
CZ-4 DEB SSO 2024-06-24 01:58:51 0.0004148903 95.0 (m) DEBRIS

Associated space launch

CZ-4B R/B was lifted into orbit during the mission ‘Long March 4B | Shiyan-6-03’, on board a Long March 4B space rocket.

The launch took place on April 8, 2021, 11:01 p.m. from Launch Complex 9.

For more information about the launch, click the button.

Launch to space Long March 4B | Shiyan-6-03
Long March 4B | Shiyan-6-03

Agency: N/A

Status: Launch Successful

Launch date: April 8, 2021, 11:01 p.m. UTC

Rocket: Long March 4B

Launch pad: Launch Complex 9

Location: Taiyuan Satellite Launch Center, People's Republic of China

...

Latest news about this satellite

News about space launch
China launches experimental satellite on a Long March 4B

China launched an experimental satellite from the Taiyuan Satellite Launch Center on Friday morning using the Long March-4B – Chang Zheng-4B – (Y49) rocket. The launch took place at 23:01 UTC (Thursday) from Launch Complex LC9.

News about space launch
China launches experimental Shiyan satellite

China launched the third in a series of experimental Shiyan 6 satellites April 8 aboard a Long March 4B rocket, beginning a mission to test new space technologies, including a new super-black coating to absorb stray light and improve the sensitivity of on...


Newsletter sign-up

Weekly statistics, charts and insights to help you stay on top of the space industry.